Location: Étouvelles
(49.5207°N, 3.5808°E)
Time: 00:16:25
(UTC+00:00)

SKYMED 2 - Pass Details

Date: 03 February 2023
Orbit: 621 x 623 km, 97.9° (Epoch: 21 March)

Event Time Altitude Azimuth Distance (km) Brightness Sun altitude
Rises 17:52:53 0° 15° (NNE) 2,920 6.7 -11.4°
Reaches altitude 10° 17:55:06 10° 17° (NNE) 2,008 5.9 -11.7°
Maximum altitude 17:59:28 74° 102° (ESE) 655 3.5 -12.4°
Drops below altitude 10° 18:03:48 10° 188° (S) 1,990 6.4 -13.1°
Sets 18:05:59 0° 191° (S) 2,891 7.3 -13.5°
